Skip to main content.
NOAA NWS Hourly Roundups by Site

NOAA NWS Hourly Roundups by Site

Regional Weather Roundup for Omaha, NE

To Select Another Site Choose from List

Select Site:  

000
ASUS43 KOAX 150810
RWRNE

WEATHER ROUNDUP FOR NEBRASKA
NATIONAL WEATHER SERVICE OMAHA NE
300 AM CDT WED AUG 15 2018

NOTES: SATELLITE DATA IS BEING USED TO AUGMENT CLOUD COVER ABOVE
       12000 FEET.
       "FAIR" INDICATES FEW OR NO CLOUDS BELOW 12,000 FEET WITH NO
       SIGNIFICANT WEATHER AND/OR OBSTRUCTIONS TO VISIBILITY.


NEZ001>004-019>022-054>056-150900-
NEBRASKA PANHANDLE

CITY           SKY/WX    TMP DP  RH WIND       PRES   REMARKS
SCOTTSBLUFF    PTCLDY    61  60  97 NE6       30.06S
ALLIANCE       PTCLDY    58  58 100 SE6       30.04F
CHADRON        CLOUDY    61  59  93 S5        30.06F
GORDON         FOG       59  58  97 NE3       30.06F VSB 1/2
KIMBALL        CLEAR     57  56  97 SE6       30.08S
SIDNEY         PTCLDY    59  58  96 SE7       30.07F
$$

NEZ057>060-069>072-079>082-150900-
SOUTHWEST NEBRASKA

CITY           SKY/WX    TMP DP  RH WIND       PRES   REMARKS
NORTH PLATTE   PTCLDY    57  56  96 CALM      30.02F FOG
IMPERIAL       PTCLDY    58  57  97 CALM      30.04F
LEXINGTON      FOG       60  59  96 NW3       30.01R VSB 1/4
MCCOOK         CLEAR     58  58 100 SW3       30.01F FOG
OGALLALA       CLEAR     64  61  89 CALM      30.04S
$$

NEZ005>010-023>029-035>040-094-150900-
NORTH CENTRAL NEBRASKA

CITY           SKY/WX    TMP DP  RH WIND       PRES   REMARKS
VALENTINE      PTCLDY    61  58  90 SE3       30.01F
AINSWORTH      MOCLDY    60  60 100 CALM      30.02F
BROKEN BOW     CLEAR     60  59  96 N5        30.01R
O`NEILL        CLEAR     63  62  97 CALM      29.99F
ORD            FOG       60  60 100 NW5       29.98F VSB 1/2
THEDFORD       CLEAR     59  57  95 CALM      30.05R
$$

NEZ041-046>049-061>064-073>077-083>087-150900-
SOUTH CENTRAL NEBRASKA

CITY           SKY/WX    TMP DP  RH WIND       PRES   REMARKS
GRAND ISLAND   CLEAR     62  60  93 NW5       29.97S
AURORA         CLEAR     60  60 100 NW6       29.96S FOG
HASTINGS       CLEAR     63  62  97 N6        29.97S
HEBRON         CLEAR     66  65  97 NW3       29.93R FOG
HOLDREGE       CLEAR     59  59 100 NW3       30.00S FOG
KEARNEY        CLEAR     62  61  96 NW3       29.98F
YORK           CLEAR     63  63 100 NW5       29.94F
$$

NEZ011>018-030>034-042>045-150900-
NORTHEAST NEBRASKA

CITY           SKY/WX    TMP DP  RH WIND       PRES   REMARKS
NORFOLK        CLEAR     63  62  97 W7        29.95S
ALBION         CLEAR     64  63  97 NW7       29.97F
BLAIR          HVY RAIN  68  67  98 N13       29.90S
COLUMBUS       CLEAR     65  64  97 W5        29.94S FOG
FREMONT        RAIN      70  68  95 CALM      29.92S
TEKAMAH        CLOUDY    68  66  93 NW8       29.91S
WAYNE          CLEAR     62  61  96 NE3       29.96R
$$

NEZ050>053-065>068-078-088>093-150900-
SOUTHEAST NEBRASKA

CITY           SKY/WX    TMP DP  RH WIND       PRES   REMARKS
LINCOLN        CLOUDY    68  66  93 N13       29.90S
OMAHA EPPLEY   LGT RAIN  70  67  90 N7        29.89R FOG
BEATRICE       CLOUDY    68  66  94 NW3       29.90S
FALLS CITY     CLOUDY    70  70 100 NW6       29.85S FOG
NEBRASKA CITY  CLOUDY    67  67 100 CALM      29.87S FOG
PLATTSMOUTH    FOG       67  67  98 NW3       29.88S VSB 3/4
$$

NEZ044-045-051>053-067-150900-
OMAHA AREA

CITY           SKY/WX    TMP DP  RH WIND       PRES   REMARKS
OMAHA EPPLEY   LGT RAIN  70  67  90 N7        29.89R FOG
BLAIR          HVY RAIN  68  67  98 N13       29.90S
FREMONT        RAIN      70  68  95 CALM      29.92S
MILLARD        CLOUDY    70  69  96 NE5       29.89R
OFFUTT AFB     CLOUDY    70  69  97 N5        29.87R
PLATTSMOUTH    FOG       67  67  98 NW3       29.88S VSB 3/4
WAHOO          HVY RAIN  68  67  98 N13G18    29.91R
$$


 

View Past Reports for Omaha, NE.

Products Courtesy of NOAA-NWS
NWS Information Parsing Script by Ken True at Saratoga Weather - Script by SE Lincoln Weather.